Location: Claremont
(33.9858°S, 18.4575°E)
Time: 02:55:40
(UTC+00:00)

Cosmos 1975 - Pass Details

Date: 03 March 2021
Orbit: 541 x 560 km, 82.5° (Epoch: 21 April)

Event Time Altitude Azimuth Distance (km) Brightness Sun altitude
Rises 18:47:17 0° 181° (S) 2,746 6.7 -18.3°
Reaches altitude 10° 18:49:32 10° 176° (S) 1,841 5.7 -18.8°
Maximum altitude 18:53:29 52° 99° (E) 690 2.9 -19.5°
Enters shadow 18:53:39 51° 88° (E) 693 2.9 -19.6°
